Notices

What's New in latest Release from April 7th, 2021:

- Updated Glossary, including Speed of Maximum Gust, and Total Hourly Precipitation

- Updated national and regional climate services offices contacts and prices information

- Addition of station inventory lists for 1981-2010, 1971-2000, and 1961-1990 Normals.

If you haven't already, please take our survey and provide feedback about our website: https://eccc.sondage-survey.ca/f/LanguageSelection.aspx?s=442ca660-fcf1-47c0-95a9-59707d6fd709

Hourly Data Report for April 05, 2018

KENORA A
ONTARIO
Current Station Operator: NAVCAN

49°47'18.000" N
94°21'47.000" W
409.70 m
6034076
71850
YQK

Download Data

Hourly Data (April 2018)
Hourly Data Report for April 5, 2018
TIME
LST
Temp Definition
°C
Dew Point Definition
°C
Rel Hum Definition
%
Precip. Amount Definition
mm

Wind Dir Definition
10's deg

Wind Spd Definition
km/h
Visibility Definition
km
Stn Press Definition
kPa
Hmdx Definition


Wind Chill Definition


Weather Definition


00:00 -8.7 -15.8 57   28 10 24.1 96.73   -14 Clear
01:00 -9.1 -15.5 60   27 10 24.1 96.73   -14 LegendNANA
02:00 -8.6 -15.6 57   27 9 24.1 96.69   -13 LegendNANA
03:00 -9.9 -15.3 65   24 9 24.1 96.66   -15 Mostly Cloudy
04:00 -11.3 -15.7 70   24 8 24.1 96.62   -16 LegendNANA
05:00 -11.4 -16.1 69   25 9 24.1 96.64   -17 LegendNANA
06:00 -11.2 -15.5 71   25 7 24.1 96.62   -15 Mostly Cloudy
07:00 -10.8 -14.8 73   25 8 24.1 96.61   -15 LegendNANA
08:00 -9.2 -13.6 70   23 10 24.1 96.58   -14 LegendNANA
09:00 -7.0 -13.7 59   31 14 24.1 96.59   -13 Mostly Cloudy
10:00 -5.8 -13.6 55   33 19 24.1 96.57   -12 LegendNANA
11:00 -4.6 -16.7 39   34 24 24.1 96.57   -12 LegendNANA
12:00 -3.8 -16.1 38   32 20 24.1 96.54   -10 Mainly Clear
13:00 -3.8 -17.6 34   29 19 24.1 96.52   -10 LegendNANA
14:00 -3.8 -16.0 39   34 18 24.1 96.50   -10 LegendNANA
15:00 -3.2 -16.2 36   32 16 24.1 96.50   -9 Mostly Cloudy
16:00 -3.7 -17.1 35   29 24 24.1 96.48   -11 LegendNANA
17:00 -5.6 -16.3 43   32 23 24.1 96.50   -13 LegendNANA
18:00 -7.0 -16.0 49   32 21 24.1 96.51   -14 Cloudy
19:00 -8.0 -16.7 50   34 18 24.1 96.49   -15 LegendNANA
20:00 -9.3 -15.8 60   36 8 24.1 96.48   -14 LegendNANA
21:00 -9.8 -16.3 59   1 17 24.1 96.48   -17 Cloudy
22:00 -10.6 -16.9 60   36 15 24.1 96.49   -17 LegendNANA
23:00 -11.5 -17.2 63   35 16 24.1 96.53   -19 LegendNANA

Notes on Data Quality.

Legend

  • E = Estimated
  • M = Missing
  • NA = Not Available*
  • [empty] = Indicates an unobserved value
Date modified: